Flag for Austria Weather past 2 weeks in Graz, Styria, Austria

Now
46 °F

Clear.


Feels Like: 44 °F
Forecast: 35 / 50 °F
Wind: 6 mph from North

Location: Graz-Thalerhof-Flughafen

Current Time: Apr 1, 2015 at 6:01:26 AM

Latest Report: Apr 1, 2015 at 5:20 AM


Visibility: 10 mi

Pressure: 29.74 "Hg

Humidity: 40%

Dew point: 23 °F

Location of GrazLocation

Historic Weather in Graz — Graph

°F

Graz temperature yesterday

Maximum temperature yesterday: 66 °F (at 2:20 PM)
Minimum temperature yesterday: 32 °F (at 5:50 AM)
Average temperature yesterday: 50 °F

Past Weeks' High & Low Weather Summary

 TemperatureHumidityPressure
High66 °F (Mar 31, 2:20 PM)100% (Mar 17, 6:50 AM)30.48 "Hg (Mar 17, 6:50 AM)
Low27 °F (Mar 20, 4:20 AM)30% (Mar 20, 3:20 PM)29.45 "Hg (Mar 30, 11:50 AM)
Average46 °F66%29.96 "Hg
* Reported Mar 17 3:20 AM — Apr 1 4:20 AM, Graz, Weather by CustomWeather, © 2015

Note: Actual official high and low records may vary slightly from our data, if they occured in-between our weather recording intervals... More about our weather records

Advertising

Graz weather history for previous 24 hours

 ConditionsComfort  
Time TempWeatherWind HumidityBarometerVisibility
4:20 AM
Wed, Apr 1
45 °FPassing clouds.8 mph49%29.74 "HgN/A
3:50 AM45 °FPassing clouds.7 mph49%29.74 "HgN/A
3:20 AM45 °FQuite cool.6 mph53%29.74 "HgN/A
2:50 AM45 °FQuite cool.12 mph49%29.74 "HgN/A
2:20 AM46 °FCool.14 mph46%29.74 "HgN/A
1:50 AM46 °FCool.10 mph46%29.74 "HgN/A
1:20 AM46 °FCool.9 mph53%29.74 "HgN/A
12:50 AM46 °FCool.12 mph57%29.74 "HgN/A
12:20 AM45 °FPassing clouds.15 mph66%29.74 "HgN/A
11:50 PM
Tue, Mar 31
46 °FPassing clouds.15 mph62%29.71 "HgN/A
11:20 PM46 °FPassing clouds.9 mph62%29.71 "HgN/A
10:50 PM48 °FPassing clouds.6 mph54%29.68 "HgN/A
10:20 PM50 °FPassing clouds.3 mph54%29.68 "HgN/A
9:50 PM52 °FPartly cloudy.14 mph50%29.65 "HgN/A
9:20 PM52 °FPartly cloudy.18 mph58%29.65 "HgN/A
8:50 PM55 °FPartly cloudy.5 mph51%29.62 "HgN/A
8:20 PM57 °FBroken clouds.7 mph48%29.59 "HgN/A
7:50 PM54 °FBroken clouds.5 mph72%29.56 "HgN/A
7:20 PM55 °FBroken clouds.8 mph67%29.53 "HgN/A
6:50 PM57 °FPartly sunny.8 mph59%29.50 "HgN/A
6:20 PM57 °FSprinkles. Partly sunny.10 mph63%29.50 "HgN/A
5:50 PM61 °FSprinkles. Partly sunny.8 mph48%29.47 "HgN/A
5:20 PM63 °FBroken clouds.10 mph42%29.47 "HgN/A
4:50 PM64 °FSprinkles. Broken clouds.8 mph40%29.47 "HgN/A
4:20 PM64 °FBroken clouds.3 mph40%29.45 "HgN/A
3:50 PM66 °FBroken clouds.10 mph32%29.45 "HgN/A
3:20 PM66 °FScattered clouds.10 mph35%29.45 "HgN/A
2:50 PM66 °FScattered clouds.10 mph32%29.47 "HgN/A
2:20 PM66 °FPassing clouds.12 mph35%29.47 "HgN/A
1:50 PM64 °FPassing clouds.10 mph37%29.50 "HgN/A
1:20 PM63 °FPassing clouds.10 mph39%29.50 "HgN/A
12:50 PM61 °FPassing clouds.12 mph48%29.53 "HgN/A
12:20 PM57 °FPassing clouds.12 mph51%29.53 "HgN/A
11:50 AM57 °FPassing clouds.8 mph48%29.56 "HgN/A
11:20 AM55 °FPassing clouds.9 mph51%29.59 "HgN/A
10:50 AM52 °FScattered clouds.6 mph54%29.62 "HgN/A
10:20 AM48 °FScattered clouds.2 mph62%29.65 "HgN/A
9:50 AM45 °FPartly sunny.2 mph66%29.68 "HgN/A
9:20 AM45 °FBroken clouds.2 mph66%29.71 "HgN/A
8:50 AM43 °FBroken clouds.2 mph71%29.74 "HgN/A
8:20 AM41 °FBroken clouds.6 mph70%29.74 "HgN/A
7:50 AM39 °FBroken clouds.3 mph75%29.77 "HgN/A
7:20 AM37 °FPartly cloudy.3 mph81%29.77 "HgN/A
6:50 AM36 °FPartly cloudy.1 mph81%29.80 "HgN/A
6:20 AM36 °FPassing clouds.3 mph81%29.83 "HgN/A
Weather by CustomWeather, © 2015

See weather overviewHow to use our weather pages